Location: Unspecified
(0.0000°N, 0.0000°E)
Time: 15:55:48
(UTC+00:00)

N. Korean satellite - Pass Details

Date: 09 February 2018
Orbit: 457 x 514 km, 97.2° (Epoch: 19 May)

Event Time Altitude Azimuth Distance (km) Brightness Sun altitude
Rises 18:56:56 0° 195° (SSW) 2,536 10.6 -10.3°
Reaches altitude 10° 18:59:29 10° 214° (SW) 1,642 10.0 -11.0°
Maximum altitude 19:01:57 18° 258° (WSW) 1,217 9.8 -11.5°
Drops below altitude 10° 19:04:23 10° 303° (WNW) 1,616 9.8 -12.1°
Sets 19:06:52 0° 323° (NW) 2,479 10.5 -12.7°
